This is the latest recevied weather packets stored in our database for station/object W8MRL. If no packets are shown the sender has not sent any weather packets the latest 10 day(s).
| Time | Temp. | Humidity | Pressure | Rain* | Wind** | Luminosity | Snow |
|---|---|---|---|---|---|---|---|
| 1777384838 | 17.78° C | 90% | 1016.2 hPa | 0 mm | - | - | - |
| 1777383946 | 17.22° C | 92% | 1016 hPa | 0 mm | - | - | - |
| 1777383029 | 16.67° C | 94% | 1016.1 hPa | 0 mm | - | - | - |
| 1777382132 | 16.11° C | 95% | 1016 hPa | 0 mm | - | - | - |
| 1777381249 | 16.11° C | 95% | 1015.5 hPa | 0 mm | - | - | - |
| 1777380323 | 16.11° C | 95% | 1015.4 hPa | 0 mm | - | - | - |
| 1777379421 | 15.56° C | 95% | 1015.2 hPa | 0 mm | - | - | - |
| 1777378527 | 15.56° C | 96% | 1014.9 hPa | 0 mm | - | - | - |
| 1777377621 | 15.56° C | 95% | 1014.9 hPa | 0 mm | - | - | - |
| 1777376719 | 15.56° C | 95% | 1014.7 hPa | 0 mm | - | - | - |
| 1777375826 | 15° C | 96% | 1014.6 hPa | 0 mm | - | - | - |
| 1777374918 | 15° C | 96% | 1014.2 hPa | 0 mm | - | - | - |
| 1777374017 | 15° C | 96% | 1014.3 hPa | 0 mm | - | - | - |
| 1777373116 | 15° C | 96% | 1013.7 hPa | 0 mm | - | - | - |
| 1777372220 | 15° C | 96% | 1013.6 hPa | 0 mm | - | - | - |
| 1777371315 | 15° C | 96% | 1013.6 hPa | 0 mm | - | - | - |
| 1777370416 | 15° C | 96% | 1013.6 hPa | 0 mm | - | - | - |
| 1777369574 | 15° C | 96% | 1013.5 hPa | 0 mm | - | - | - |
| 1777368613 | 15° C | 97% | 1013.5 hPa | 0 mm | - | - | - |
| 1777367712 | 14.44° C | 97% | 1013.4 hPa | 0 mm | - | - | - |
| 1777366812 | 15° C | 97% | 1013.2 hPa | 0 mm | - | - | - |
| 1777365911 | 15° C | 97% | 1012.9 hPa | 0 mm | - | - | - |
| 1777365011 | 15° C | 97% | 1012.5 hPa | 0 mm | - | - | - |
| 1777364110 | 15° C | 97% | 1012.3 hPa | 0 mm | - | - | - |
| 1777363218 | 14.44° C | 97% | 1011.2 hPa | 0 mm | - | - | - |
* Rain latest hour (hover to see other rain measurements)
** Current wind speed in m/s (hover to see current wind gust speed)